Location: Brahman Valley
(40.6513°N, 111.8855°W)
Time: 13:03:18
(UTC+00:00)

Courier 1B Rocket - All Passes

Search period start: 08 May 2021 00:00
Search period end: 18 May 2021 00:00
Orbit: 920 x 1202 km, 28.2° (Epoch: 07 May)

Date Brightness Start Highest point End Pass type
(mag) Time Alt. Az. Time Alt. Az. Time Alt. Az.
08 May - 19:00:46 10° SSW 19:05:28 19° SSE 19:09:59 10° ESE daylight
08 May - 20:52:36 10° SW 20:58:06 27° S 21:03:21 10° ESE daylight
08 May - 22:45:46 10° WSW 22:50:41 23° SSW 22:55:26 10° SE daylight
09 May - 00:41:26 10° SW 00:43:00 11° SSW 00:44:36 10° S daylight
09 May - 18:00:37 10° SSW 18:04:39 16° SSE 18:08:32 10° SE daylight
09 May - 19:51:44 10° SW 19:57:16 26° S 20:02:32 10° ESE daylight
09 May - 21:44:35 10° WSW 21:49:55 26° S 21:55:01 10° SE daylight
09 May - 23:38:51 10° SW 23:42:21 15° SSW 23:45:48 10° SSE daylight
10 May - 17:01:09 10° S 17:03:49 12° SSE 17:06:26 10° SE daylight
10 May - 18:50:57 10° SW 18:56:25 24° SSE 19:01:37 10° ESE daylight
10 May - 20:43:27 10° WSW 20:49:06 28° S 20:54:29 10° SE daylight
10 May - 22:37:09 10° WSW 22:41:39 20° SSW 22:46:01 10° SSE daylight
11 May - 17:50:23 10° SSW 17:55:33 21° SSE 18:00:29 10° ESE daylight
11 May - 19:42:25 10° SW 19:48:16 28° S 19:53:49 10° ESE daylight
11 May - 21:35:43 10° WSW 21:40:54 24° SSW 21:45:52 10° SE daylight
11 May - 23:31:31 10° SW 23:33:15 11° SSW 23:34:59 10° S daylight
12 May - 16:50:07 10° SSW 16:54:40 17° SSE 16:59:04 10° ESE daylight
12 May - 18:41:27 10° SW 18:47:23 27° S 18:53:00 10° ESE daylight
12 May - 20:34:26 10° WSW 20:40:07 27° S 20:45:29 10° SE daylight
12 May - 22:28:50 10° WSW 22:32:34 16° SSW 22:36:13 10° SSE daylight
13 May - 15:50:26 10° S 15:53:48 13° SSE 15:57:05 10° SE daylight
13 May - 17:40:36 10° SW 17:46:28 25° SSE 17:52:02 10° ESE daylight
13 May - 19:33:14 10° WSW 19:39:14 29° S 19:44:56 10° SE daylight
13 May - 21:27:02 10° WSW 21:31:51 20° SSW 21:36:27 10° SSE daylight
14 May - 16:39:58 10° SSW 16:45:32 22° SSE 16:50:53 10° ESE daylight
14 May - 18:32:07 10° SW 18:38:20 30° S 18:44:14 10° ESE daylight
14 May - 20:25:32 10° WSW 20:31:04 25° SSW 20:36:19 10° SE daylight
14 May - 22:21:16 10° SW 22:23:26 12° SSW 22:25:35 10° S daylight
15 May - 15:39:40 10° SSW 15:44:37 18° SSE 15:49:26 10° ESE daylight
15 May - 17:31:06 10° SW 17:37:23 29° S 17:43:22 10° ESE daylight
15 May - 19:24:10 10° WSW 19:30:12 28° S 19:35:54 10° SE daylight
15 May - 21:18:38 10° WSW 21:22:44 16° SSW 21:26:42 10° SSE daylight
16 May - 14:39:54 10° S 14:43:42 14° SSE 14:47:27 10° SE daylight
16 May - 16:30:14 10° SW 16:36:25 27° SSE 16:42:21 10° ESE daylight
16 May - 18:22:55 10° WSW 18:29:17 30° S 18:35:19 10° SE daylight
16 May - 20:16:47 10° WSW 20:21:58 21° SSW 20:26:54 10° SSE daylight
17 May - 15:29:36 10° SSW 15:35:26 23° SSE 15:41:07 10° ESE daylight
17 May - 17:21:46 10° WSW 17:28:18 31° S 17:34:32 10° ESE daylight
17 May - 19:15:14 10° WSW 19:21:07 26° SSW 19:26:42 10° SE daylight
17 May - 21:10:52 10° SW 21:13:33 12° SSW 21:16:11 10° S daylight
